| time (UTC) | temp F | wind direction | speed knots | gust knots | rain 1hr in | rain 24hr in | rain mn in | humidity % | barometer mb |
| 20260506023405 | 50 | 22 | 2.6 | 6.1 | 0.00 | 0.00 | 0.00 | 86 | 1008.1 |
| 20260506022405 | 50 | 17 | 2.6 | 7.0 | 0.00 | 0.00 | 0.00 | 87 | 1008.1 |
| 20260506020408 | 50 | 29 | 2.6 | 5.2 | 0.00 | 0.00 | 0.00 | 88 | 1008.2 |
| 20260506015405 | 50 | 16 | 2.6 | 6.1 | 0.00 | 0.00 | 0.00 | 88 | 1008.3 |
| 20260506012405 | 50 | 19 | 2.6 | 5.2 | 0.00 | 0.00 | 0.00 | 89 | 1008.3 |
| 20260506011405 | 50 | 9 | 2.6 | 7.0 | 0.00 | 0.00 | 0.00 | 89 | 1008.4 |
| 20260506010405 | 50 | 29 | 2.6 | 7.0 | 0.00 | 0.00 | 0.00 | 89 | 1008.4 |
| 20260506004406 | 50 | 346 | 3.5 | 6.1 | 0.00 | 0.00 | 0.00 | 88 | 1008.6 |
| 20260506003406 | 50 | 355 | 3.5 | 7.0 | 0.00 | 0.00 | 0.00 | 87 | 1008.6 |
| 20260506002406 | 50 | 360 | 2.6 | 4.3 | 0.00 | 0.00 | 0.00 | 87 | 1008.7 |
| 20260506000409 | 50 | 355 | 3.5 | 7.0 | 0.00 | 0.00 | 0.00 | 86 | 1008.8 |
| 20260505235407 | 50 | 360 | 2.6 | 8.7 | 0.00 | 0.00 | 0.00 | 86 | 1009.0 |
| 20260505234406 | 50 | 17 | 3.5 | 7.8 | 0.00 | 0.00 | 0.00 | 85 | 1009.1 |
| 20260505233409 | 50 | 5 | 2.6 | 5.2 | 0.00 | 0.00 | 0.00 | 85 | 1009.1 |
| 20260505232406 | 50 | 5 | 5.2 | 8.7 | 0.00 | 0.00 | 0.00 | 85 | 1009.0 |
| 20260505231406 | 50 | 17 | 4.3 | 10.4 | 0.00 | 0.00 | 0.00 | 85 | 1009.1 |
| 20260505230407 | 50 | 344 | 2.6 | 7.0 | 0.00 | 0.00 | 0.00 | 85 | 1009.1 |
| 20260505224407 | 50 | 360 | 4.3 | 8.7 | 0.00 | 0.00 | 0.00 | 84 | 1009.2 |
| 20260505222406 | 50 | 5 | 3.5 | 9.6 | 0.00 | 0.00 | 0.00 | 84 | 1009.3 |
| 20260505220407 | 50 | 360 | 4.3 | 8.7 | 0.00 | 0.00 | 0.00 | 83 | 1009.4 |
| 20260505215407 | 50 | 346 | 3.5 | 9.6 | 0.00 | 0.00 | 0.00 | 83 | 1009.5 |
| 20260505214407 | 50 | 11 | 3.5 | 8.7 | 0.00 | 0.00 | 0.00 | 83 | 1009.7 |
| 20260505213407 | 50 | 5 | 2.6 | 7.0 | 0.00 | 0.00 | 0.00 | 83 | 1009.7 |
| 20260505212410 | 50 | 119 | 2.6 | 5.2 | 0.00 | 0.00 | 0.00 | 83 | 1009.7 |
| 20260505211407 | 50 | 5 | 4.3 | 9.6 | 0.00 | 0.00 | 0.00 | 83 | 1009.7 |
| 20260505210407 | 50 | 17 | 2.6 | 6.1 | 0.00 | 0.00 | 0.00 | 84 | 1009.8 |
| 20260505205407 | 50 | 360 | 3.5 | 8.7 | 0.00 | 0.00 | 0.00 | 83 | 1009.9 |
| 20260505204407 | 50 | 25 | 4.3 | 8.7 | 0.00 | 0.00 | 0.00 | 83 | 1009.9 |
| 20260505203407 | 50 | 9 | 4.3 | 9.6 | 0.00 | 0.00 | 0.00 | 83 | 1010.0 |
| 20260505202407 | 50 | 344 | 4.3 | 10.4 | 0.00 | 0.00 | 0.00 | 84 | 1010.0 |
| 20260505201410 | 50 | 346 | 4.3 | 7.8 | 0.00 | 0.00 | 0.00 | 84 | 1009.9 |
| 20260505195407 | 50 | 9 | 3.5 | 8.7 | 0.00 | 0.00 | 0.00 | 84 | 1009.9 |
| 20260505193408 | 50 | 355 | 3.5 | 9.6 | 0.00 | 0.00 | 0.00 | 84 | 1009.8 |
| 20260505192407 | 51 | 355 | 3.5 | 7.8 | 0.00 | 0.00 | 0.00 | 85 | 1009.8 |
| 20260505191408 | 51 | 11 | 4.3 | 8.7 | 0.00 | 0.00 | 0.00 | 84 | 1009.7 |
| 20260505190408 | 51 | 360 | 3.5 | 7.8 | 0.00 | 0.00 | 0.00 | 85 | 1009.6 |
| 20260505185408 | 51 | 342 | 3.5 | 7.0 | 0.00 | 0.00 | 0.00 | 84 | 1009.6 |
| 20260505183408 | 51 | 345 | 6.1 | 10.4 | 0.00 | 0.00 | 0.00 | 84 | 1009.5 |
| 20260505181408 | 51 | 5 | 5.2 | 10.4 | 0.00 | 0.00 | 0.00 | 84 | 1009.5 |
| 20260505175408 | 52 | 37 | 5.2 | 9.6 | 0.00 | 0.00 | 0.00 | 83 | 1009.7 |
| 20260505174411 | 52 | 328 | 5.2 | 11.3 | 0.00 | 0.00 | 0.00 | 83 | 1009.6 |
| 20260505173408 | 52 | 360 | 6.1 | 10.4 | 0.00 | 0.00 | 0.00 | 82 | 1009.7 |
| 20260505172408 | 52 | 9 | 6.1 | 11.3 | 0.00 | 0.00 | 0.00 | 82 | 1009.7 |
| 20260505171408 | 53 | 13 | 6.1 | 10.4 | 0.00 | 0.00 | 0.00 | 82 | 1009.8 |
| 20260505165409 | 54 | 346 | 7.0 | 11.3 | 0.00 | 0.00 | 0.00 | 80 | 1009.7 |
| 20260505164409 | 54 | 11 | 3.5 | 7.8 | 0.00 | 0.00 | 0.00 | 81 | 1009.7 |
| 20260505163412 | 54 | 97 | 2.6 | 7.8 | 0.00 | 0.00 | 0.00 | 81 | 1009.7 |
| 20260505162409 | 54 | 5 | 5.2 | 9.6 | 0.00 | 0.00 | 0.00 | 78 | 1009.7 |
| 20260505161409 | 55 | 333 | 5.2 | 9.6 | 0.00 | 0.00 | 0.00 | 78 | 1009.6 |
| 20260505160409 | 55 | 51 | 3.5 | 7.8 | 0.00 | 0.00 | 0.00 | 77 | 1009.7 |
| 20260505151409 | 56 | 355 | 4.3 | 8.7 | 0.00 | 0.00 | 0.00 | 74 | 1010.0 |
| 20260505150409 | 56 | 355 | 4.3 | 7.8 | 0.00 | 0.00 | 0.00 | 77 | 1010.0 |
| 20260505140404 | 56 | 5 | 4.3 | 9.6 | 0.00 | 0.00 | 0.00 | 79 | 1010.3 |
| 20260505124405 | 54 | 360 | 1.7 | 4.3 | 0.00 | 0.00 | 0.00 | 83 | 1010.9 |
| 20260505123406 | 53 | 350 | 3.5 | 7.8 | 0.00 | 0.00 | 0.00 | 81 | 1011.0 |
| 20260505122405 | 53 | 15 | 2.6 | 7.0 | 0.00 | 0.00 | 0.00 | 80 | 1011.0 |
| 20260505121405 | 53 | 24 | 1.7 | 3.5 | 0.00 | 0.00 | 0.00 | 82 | 1010.9 |
| 20260505120406 | 53 | 5 | 2.6 | 5.2 | 0.00 | 0.00 | 0.00 | 82 | 1011.0 |
| 20260505115405 | 54 | 325 | 2.6 | 6.1 | 0.00 | 0.00 | 0.00 | 83 | 1011.0 |
| 20260505114405 | 53 | 57 | 2.6 | 7.0 | 0.00 | 0.00 | 0.00 | 84 | 1011.1 |
| 20260505112405 | 53 | 355 | 3.5 | 7.0 | 0.00 | 0.00 | 0.00 | 83 | 1011.1 |
| 20260505111406 | 52 | 350 | 3.5 | 7.0 | 0.00 | 0.00 | 0.00 | 82 | 1011.2 |
| 20260505110408 | 53 | 69 | 1.7 | 3.5 | 0.00 | 0.00 | 0.00 | 83 | 1011.3 |
| 20260505101406 | 51 | 19 | 2.6 | 4.3 | 0.00 | 0.00 | 0.00 | 83 | 1011.5 |
| 20260505100406 | 51 | 26 | 4.3 | 9.6 | 0.00 | 0.00 | 0.00 | 84 | 1011.6 |
| 20260505095406 | 51 | 325 | 4.3 | 7.8 | 0.00 | 0.00 | 0.00 | 84 | 1011.6 |
| 20260505094406 | 51 | 42 | 5.2 | 10.4 | 0.00 | 0.00 | 0.00 | 84 | 1011.6 |
| 20260505093409 | 51 | 35 | 3.5 | 7.8 | 0.00 | 0.00 | 0.00 | 85 | 1011.6 |
| 20260505091407 | 50 | 62 | 2.6 | 7.0 | 0.00 | 0.00 | 0.00 | 85 | 1011.8 |
| 20260505090406 | 50 | 14 | 3.5 | 7.8 | 0.00 | 0.00 | 0.00 | 86 | 1011.9 |
| 20260505084407 | 50 | 76 | 2.6 | 7.0 | 0.00 | 0.00 | 0.00 | 85 | 1012.1 |
| 20260505083409 | 50 | 24 | 2.6 | 4.3 | 0.00 | 0.00 | 0.00 | 86 | 1012.1 |
| 20260505082406 | 50 | 30 | 2.6 | 7.8 | 0.00 | 0.00 | 0.00 | 85 | 1012.1 |
| 20260505074407 | 48 | 355 | 4.3 | 7.8 | 0.00 | 0.00 | 0.00 | 87 | 1012.2 |
| 20260505072407 | 48 | 21 | 4.3 | 8.7 | 0.00 | 0.00 | 0.00 | 88 | 1012.1 |
| 20260505071407 | 48 | 360 | 4.3 | 10.4 | 0.00 | 0.00 | 0.00 | 88 | 1012.1 |
| 20260505070407 | 47 | 5 | 5.2 | 10.4 | 0.00 | 0.00 | 0.00 | 88 | 1012.1 |
| 20260505065407 | 47 | 15 | 3.5 | 7.0 | 0.00 | 0.00 | 0.00 | 88 | 1012.2 |
| 20260505064407 | 47 | 355 | 3.5 | 6.1 | 0.00 | 0.00 | 0.00 | 89 | 1012.2 |
| 20260505063407 | 47 | 24 | 3.5 | 7.8 | 0.00 | 0.00 | 0.00 | 89 | 1012.3 |
| 20260505062407 | 47 | 344 | 2.6 | 8.7 | 0.00 | 0.00 | 0.00 | 89 | 1012.2 |
| 20260505060407 | 47 | 53 | 3.5 | 7.8 | 0.00 | 0.00 | 0.00 | 89 | 1012.3 |
| 20260505055407 | 47 | 14 | 2.6 | 5.2 | 0.00 | 0.00 | 0.00 | 89 | 1012.2 |
| 20260505054407 | 47 | 33 | 2.6 | 7.0 | 0.00 | 0.00 | 0.00 | 89 | 1012.2 |
| 20260505052407 | 47 | 55 | 4.3 | 9.6 | 0.00 | 0.00 | 0.00 | 89 | 1012.2 |
| 20260505051407 | 47 | 14 | 3.5 | 8.7 | 0.00 | 0.00 | 0.00 | 89 | 1012.2 |
| 20260505041407 | 47 | 42 | 4.3 | 8.7 | 0.00 | 0.00 | 0.00 | 89 | 1012.1 |
| 20260505040407 | 47 | 32 | 2.6 | 10.4 | 0.00 | 0.00 | 0.00 | 90 | 1012.1 |
| 20260505035407 | 47 | 12 | 2.6 | 6.1 | 0.00 | 0.00 | 0.00 | 89 | 1012.0 |
| 20260505034407 | 47 | 66 | 1.7 | 3.5 | 0.00 | 0.00 | 0.00 | 89 | 1012.1 |
| 20260505030407 | 47 | 59 | 2.6 | 7.0 | 0.00 | 0.00 | 0.00 | 89 | 1012.3 |
| 20260505025407 | 47 | 56 | 2.6 | 7.0 | 0.00 | 0.00 | 0.00 | 89 | 1012.3 |
| 20260505024412 | 47 | 36 | 4.3 | 8.7 | 0.00 | 0.00 | 0.00 | 89 | 1012.4 |